Birchwood, AK

5:20 AM AKDT on July 21, 2017 (GMT -0800)
Birchwood

Weather History for PABV - October, 2013

Change the Weather History Date:

Thursday, October 17, 2013

  Actual Average Record
Temperature  
Mean Temperature 48 °F -  
Max Temperature 53 °F 36 °F 53 °F (2013)
Min Temperature 44 °F 24 °F 10 °F (1996)
Degree Days  
Heating Degree Days 16    
Moisture  
Dew Point 43 °F    
Average Humidity 88    
Maximum Humidity 100    
Minimum Humidity 54    
Precipitation  
Precipitation 0.00 in - - ()
Sea Level Pressure  
Sea Level Pressure 29.98 in    
Wind  
Wind Speed 2 mph (SSE)    
Max Wind Speed 13 mph    
Max Gust Speed 17 mph    
Visibility 10 miles    
Events      
Averages and records for this station are not official NWS values.
T = Trace of Precipitation, MM = Missing Value Source: NWS Daily Summary

Daily Weather History Graph

Daily Weather History Graph

Search for Another Location

Airport or City:

Trip Planner

Search our weather history database for the weather conditions in past years. The results will help you decide how hot, cold, wet, or windy it might be!

Date:

Astronomy

Oct. 17, 2013 Rise Set
Actual Time 8:47 AM AKDT 6:37 PM AKDT
Civil Twilight 8:02 AM AKDT 7:22 PM AKDT
Nautical Twilight 7:12 AM AKDT 8:12 PM AKDT
Astronomical Twilight 6:21 AM AKDT 9:03 PM AKDT
Moon 6:04 PM AKDT (10/17) 7:16 AM AKDT (10/17)
Length of Visible Light 11h 19m
Length of Day
9h 50m
Waxing Gibbous, 98% of the Moon is Illuminated
Oct 17
Waxing Gibbous
Oct 18
Full
Oct 26
Last Quarter
Nov 3
New
Nov 9
First Quarter

Hourly Weather History & Observations

Time (AKDT) Temp. Windchill Dew Point Humidity Pressure Visibility Wind Dir Wind Speed Gust Speed Precip Events Conditions
12:16 AM 46.4 °F - 42.8 °F 87% 30.15 in 10.0 mi Calm Calm - N/A   Overcast
12:36 AM 46.4 °F 45.2 °F 42.8 °F 87% 30.15 in 10.0 mi SSE 3.5 mph - N/A   Overcast
12:56 AM 46.4 °F - 42.8 °F 87% 30.14 in 10.0 mi Calm Calm - N/A   Overcast
1:16 AM 48.2 °F - 41.0 °F 76% 30.14 in 10.0 mi SE 4.6 mph - N/A   Overcast
1:36 AM 48.2 °F - 42.8 °F 82% 30.13 in 10.0 mi Calm Calm - N/A   Overcast
1:56 AM 46.4 °F 44.3 °F 42.8 °F 87% 30.13 in 10.0 mi NNE 4.6 mph - N/A   Overcast
2:16 AM 46.4 °F - 42.8 °F 87% 30.11 in 10.0 mi Calm Calm - N/A   Overcast
2:36 AM 46.4 °F - 42.8 °F 87% 30.12 in 10.0 mi Calm Calm - N/A   Overcast
2:56 AM 46.4 °F - 42.8 °F 87% 30.11 in 10.0 mi Calm Calm - N/A   Overcast
3:16 AM 44.6 °F 41.4 °F 42.8 °F 93% 30.10 in 10.0 mi South 5.8 mph - N/A   Mostly Cloudy
3:36 AM 44.6 °F - 42.8 °F 93% 30.10 in 10.0 mi Calm Calm - N/A   Mostly Cloudy
3:56 AM 44.6 °F - 42.8 °F 93% 30.09 in 10.0 mi Calm Calm - N/A   Overcast
4:16 AM 44.6 °F - 42.8 °F 93% 30.09 in 10.0 mi Calm Calm - N/A   Overcast
4:36 AM 44.6 °F - 42.8 °F 93% 30.08 in 10.0 mi Calm Calm - N/A   Overcast
4:56 AM 44.6 °F - 42.8 °F 93% 30.07 in 10.0 mi Calm Calm - N/A   Overcast
5:16 AM 44.6 °F - 42.8 °F 93% 30.06 in 9.0 mi Calm Calm - N/A   Overcast
5:36 AM 44.6 °F - 44.6 °F 100% 30.05 in 10.0 mi Calm Calm - N/A   Overcast
5:56 AM 44.6 °F - 44.6 °F 100% 30.04 in 9.0 mi Calm Calm - N/A   Overcast
6:16 AM 44.6 °F 42.2 °F 44.6 °F 100% 30.03 in 10.0 mi NNE 4.6 mph - N/A   Overcast
6:36 AM 44.6 °F - 44.6 °F 100% 30.03 in 10.0 mi Calm Calm - N/A   Overcast
6:56 AM 44.6 °F - 44.6 °F 100% 30.03 in 10.0 mi Calm Calm - N/A   Overcast
7:16 AM 44.6 °F - 44.6 °F 100% 30.03 in 8.0 mi Calm Calm - N/A   Overcast
7:36 AM 44.6 °F - 44.6 °F 100% 30.03 in 9.0 mi Calm Calm - N/A   Overcast
7:56 AM 44.6 °F 43.1 °F 44.6 °F 100% 30.03 in 10.0 mi WSW 3.5 mph - N/A   Overcast
8:16 AM 44.6 °F - 44.6 °F 100% 30.04 in 10.0 mi Calm Calm - N/A   Overcast
8:36 AM 44.6 °F - 44.6 °F 100% 30.04 in 10.0 mi Calm Calm - N/A   Overcast
8:56 AM 44.6 °F - 44.6 °F 100% 30.04 in 10.0 mi Calm Calm - N/A   Overcast
9:16 AM 44.6 °F - 44.6 °F 100% 30.03 in 10.0 mi Calm Calm - N/A   Overcast
9:36 AM 44.6 °F - 44.6 °F 100% 30.04 in 10.0 mi Calm Calm - N/A   Overcast
9:56 AM 44.6 °F 43.1 °F 44.6 °F 100% 30.02 in 10.0 mi East 3.5 mph - N/A   Overcast
10:16 AM 44.6 °F 42.2 °F 44.6 °F 100% 30.01 in 10.0 mi ENE 4.6 mph - N/A   Mostly Cloudy
10:36 AM 44.6 °F 41.4 °F 44.6 °F 100% 30.01 in 10.0 mi NNW 5.8 mph - N/A   Partly Cloudy
10:56 AM 44.6 °F 42.2 °F 42.8 °F 93% 30.00 in 10.0 mi East 4.6 mph - N/A   Clear
11:16 AM 44.6 °F 43.1 °F 44.6 °F 100% 29.99 in 10.0 mi South 3.5 mph - N/A   Partly Cloudy
11:36 AM 46.4 °F 44.3 °F 44.6 °F 93% 30.00 in 10.0 mi NNW 4.6 mph - N/A   Mostly Cloudy
11:56 AM 44.6 °F - 44.6 °F 100% 29.99 in 10.0 mi Calm Calm - N/A   Overcast
12:16 PM 44.6 °F 42.2 °F 44.6 °F 100% 29.99 in 10.0 mi West 4.6 mph - N/A   Overcast
12:36 PM 44.6 °F 43.1 °F 44.6 °F 100% 29.98 in 10.0 mi SE 3.5 mph - N/A   Overcast
12:56 PM 44.6 °F 42.2 °F 44.6 °F 100% 30.00 in 10.0 mi South 4.6 mph - N/A   Mostly Cloudy
1:16 PM 46.4 °F 45.2 °F 44.6 °F 93% 29.98 in 10.0 mi South 3.5 mph - N/A   Clear
1:36 PM 48.2 °F - 44.6 °F 87% 29.97 in 10.0 mi Calm Calm - N/A   Clear
1:56 PM 50.0 °F - 44.6 °F 82% 29.97 in 10.0 mi Calm Calm - N/A   Clear
2:16 PM 50.0 °F - 44.6 °F 82% 29.96 in 10.0 mi WSW 5.8 mph - N/A   Clear
2:36 PM 51.8 °F - 46.4 °F 82% 29.96 in 10.0 mi Calm Calm - N/A   Clear
2:56 PM 50.0 °F - 46.4 °F 87% 29.95 in 10.0 mi Calm Calm - N/A   Clear
3:16 PM 50.0 °F - 46.4 °F 87% 29.94 in 10.0 mi SSE 3.5 mph - N/A   Clear
3:36 PM 51.8 °F - 46.4 °F 82% 29.93 in 10.0 mi SSW 4.6 mph - N/A   Mostly Cloudy
3:56 PM 51.8 °F - 46.4 °F 82% 29.92 in 10.0 mi ESE 3.5 mph - N/A   Overcast
4:16 PM 51.8 °F - 44.6 °F 76% 29.91 in 10.0 mi Calm Calm - N/A   Overcast
4:36 PM 51.8 °F - 42.8 °F 71% 29.90 in 10.0 mi Calm Calm - N/A   Overcast
4:56 PM 51.8 °F - 44.6 °F 76% 29.90 in 10.0 mi Calm Calm - N/A   Overcast
5:16 PM 51.8 °F - 44.6 °F 76% 29.89 in 10.0 mi SSW 5.8 mph - N/A   Overcast
5:36 PM 51.8 °F - 44.6 °F 76% 29.89 in 10.0 mi Calm Calm - N/A   Overcast
5:56 PM 51.8 °F - 41.0 °F 67% 29.88 in 10.0 mi Calm Calm - N/A   Mostly Cloudy
6:16 PM 50.0 °F - 41.0 °F 71% 29.89 in 10.0 mi SSW 3.5 mph - N/A   Mostly Cloudy
6:36 PM 53.6 °F - 37.4 °F 54% 29.88 in 10.0 mi SSE 9.2 mph - N/A   Overcast
6:56 PM 51.8 °F - 41.0 °F 67% 29.88 in 10.0 mi East 8.1 mph - N/A   Overcast
7:16 PM 51.8 °F - 39.2 °F 62% 29.89 in 10.0 mi NNE 8.1 mph - N/A   Overcast
7:36 PM 50.0 °F - 39.2 °F 66% 29.87 in 10.0 mi NE 12.7 mph 16.1 mph N/A   Overcast
7:56 PM 48.2 °F - 41.0 °F 76% 29.86 in 10.0 mi NNE 12.7 mph 17.3 mph N/A   Overcast
8:16 PM 48.2 °F - 39.2 °F 71% 29.86 in 10.0 mi Calm Calm - N/A   Overcast
8:36 PM 46.4 °F 41.9 °F 42.8 °F 87% 29.86 in 10.0 mi SSW 9.2 mph - N/A   Overcast
8:56 PM 46.4 °F - 42.8 °F 87% 29.86 in 10.0 mi Calm Calm - N/A   Overcast
9:16 PM 46.4 °F - 44.6 °F 93% 29.85 in 10.0 mi Calm Calm - N/A   Overcast
9:36 PM 46.4 °F - 42.8 °F 87% 29.83 in 10.0 mi Calm Calm - N/A   Overcast
9:56 PM 46.4 °F 44.3 °F 42.8 °F 87% 29.82 in 10.0 mi SSE 4.6 mph - N/A   Overcast
10:16 PM 46.4 °F - 42.8 °F 87% 29.80 in 10.0 mi Calm Calm - N/A   Overcast
10:36 PM 46.4 °F 45.2 °F 42.8 °F 87% 29.80 in 10.0 mi SSE 3.5 mph - N/A   Overcast
10:56 PM 44.6 °F 43.1 °F 42.8 °F 93% 29.80 in 10.0 mi South 3.5 mph - N/A   Overcast
11:16 PM 48.2 °F - 39.2 °F 71% 29.79 in 10.0 mi SW 3.5 mph - N/A   Overcast
11:36 PM 48.2 °F - 39.2 °F 71% 29.79 in 10.0 mi Calm Calm - N/A   Overcast
11:56 PM 46.4 °F - 42.8 °F 87% 29.79 in 10.0 mi Calm Calm - N/A   Overcast